PRAETORIAN SDA_607

Last updated on Sun Jun 21 2026 00:03:46 GMT+0000 (Coordinated Universal Time)

1 65570U 25203F 26171.27890219 .00000120 00000+0 97190-4 0 9992 2 65570 81.3036 7.7808 0008896 178.9840 181.1336 13.84284906 39138
UTC large
Height (km)
Speed (km/s)
/
Latitude / Longitude
Inclination (degrees)
Orbital Period (minutes)
Azimuth
Elevation
Range (km)
Doppler Factor

Next 0 passes for location: London (51.5072 / 0.1276)

No passes found over London.
PRAETORIAN SDA_607